Practice 1 - Red
Course: Road America · 2026-09-05 08:50AM
Weather Conditions
Temp 71°F
(64–74°F range)
Temp type NORMAL
Track DRY
Precip 0.0 mm (NONE)
Humidity 93%
Wind 15 km/h
Cloud 80%
OVERALL
BY CLASS
| POS | # | NAME | CLASS | BEST LAP | GAP | INTERVAL | LAPS |
|---|---|---|---|---|---|---|---|
| 1 | 28 | BOB MUELLER | GTA3 | 2:08.723 | - | - | 6 |
| 2 | 014 | CORY FRIEDMAN | GTA3 | 2:11.512 | 2.789 | 2.789 | 7 |
| 3 | 57 | JOHN GOETZ | GTA4 | 2:12.217 | 3.494 | 0.705 | 7 |
| 4 | 227 | JOEL JOHNSON | STG | 2:12.741 | 4.018 | 0.524 | 7 |
| 5 | 267 | MATTHEW SIEGAL | STG | 2:12.878 | 4.155 | 0.137 | 7 |
| 6 | 270 | GRIFFIN FUJII | STG | 2:12.951 | 4.228 | 0.073 | 7 |
| 7 | 24 | EARL TUCKER IV | GTC8 | 2:13.180 | 4.457 | 0.229 | 7 |
| 8 | 91 | RENE ROBICHAUD | GTA4 | 2:13.256 | 4.533 | 0.076 | 7 |
| 9 | 212 | RUSSELL FARHANG | STG | 2:13.748 | 5.025 | 0.492 | 7 |
| 10 | 211 | ERIK BENEDIKT | STG | 2:13.781 | 5.058 | 0.033 | 6 |
| 11 | 41 | CORY LIBKA | GTC7 | 2:14.495 | 5.772 | 0.714 | 6 |
| 12 | 17 | MARK CALZARETTA | GTC8 | 2:14.514 | 5.791 | 0.019 | 6 |
| 13 | 960 | KEVIN ROUSH | GTA2 | 2:14.907 | 6.184 | 0.393 | 7 |
| 14 | 844 | GIANLUCA PETTITI | GTC8 | 2:15.931 | 7.208 | 1.024 | 7 |
| 15 | 233 | DARREN FENZ | STG | 2:16.421 | 7.698 | 0.490 | 7 |
| 16 | 277 | TOM BURKE | STG | 2:16.883 | 8.160 | 0.462 | 7 |
| 17 | 81 | GTA3 ISRINGHAUSEN | GTA3 | 2:17.204 | 8.481 | 0.321 | 7 |
| 18 | 112 | KEITH JEZEK | GTC8 | 2:17.284 | 8.561 | 0.080 | 7 |
| 19 | 182 | CONNOR HARE | STC | 2:17.425 | 8.702 | 0.141 | 6 |
| 20 | 46 | EARL TUCKER III | GTC8 | 2:17.700 | 8.977 | 0.275 | 7 |
| 21 | 71 | GREGG ESAKOFF | GTA4 | 2:17.938 | 9.215 | 0.238 | 7 |
| 22 | 262 | JOSEPH G VIOLA | GTC8 | 2:18.094 | 9.371 | 0.156 | 6 |
| 23 | 08 | CLIFF CAYER | GTA4 | 2:18.415 | 9.692 | 0.321 | 7 |
| 24 | 176 | PETER HAABESTAD | STC | 2:18.701 | 9.978 | 0.286 | 7 |
| 25 | 272 | TROY PETERSEN | STG | 2:20.151 | 11.428 | 1.450 | 7 |
| 26 | 77 | MICHAEL WILLIAMS | GTC7 | 2:20.476 | 11.753 | 0.325 | 7 |
| 27 | 338 | ERNIE PUZELIS | GTC7 | 2:20.486 | 11.763 | 0.010 | 7 |
| 28 | 924 | JEFF SMITH | GTC6 | 2:20.601 | 11.878 | 0.115 | 7 |
| 29 | 74 | KEITH CLARK | GTC6 | 2:21.409 | 12.686 | 0.808 | 7 |
| 30 | 7 | STEVE PARKER | GT1 | 2:21.682 | 12.959 | 0.273 | 2 |
| 31 | 159 | SCOOP HEAVEY | GTC8 | 2:22.275 | 13.552 | 0.593 | 6 |
| 32 | 219 | MARK POLING | STG | 2:22.459 | 13.736 | 0.184 | 7 |
| 33 | 195 | MICHAEL NANCE | STC | 2:22.578 | 13.855 | 0.119 | 7 |
| 34 | 707 | KERRY BROWN | GTC6 | 2:22.646 | 13.923 | 0.068 | 7 |
| 35 | 121 | DOUG LAWSON | STC | 2:25.381 | 16.658 | 2.735 | 4 |
| 36 | 44 | JEAN AUDET | GTC5 | 2:25.985 | 17.262 | 0.604 | 7 |
| 37 | 271 | KEITH ERICKSON | GT1 | 2:28.038 | 19.315 | 2.053 | 2 |
Session Notes
2026-09-05 09:11AM:
Transponder
Car #59- No Transponder
Pole Position